Regional Weather Roundup
Issued by NWS

Home | Current Version | Previous Version | Text Only | Print | Product List | Glossary On
Versions: 1 2 3 4 5 6 7 8 9 10 11 12 13 14 15 16 17 18 19 20 21 22 23 24 25 26 27 28 29 30 31 32 33 34 35 36 37 38 39 40 41 42 43 44 45 46 47 48 49 50
000
ASUS45 KSLC 261610
RWRUT

UTAH REGIONAL WEATHER ROUNDUP
NATIONAL WEATHER SERVICE SALT LAKE CITY UT
1000 AM MDT SUN MAR 26 2017

UTZ001>011-023>025-261700-

NORTHERN UTAH

CITY           SKY/WX    TMP DP  RH WIND       PRES   REMARKS
BRIGHAM CITY     N/A     41  38  87 CALM      30.08R
HILL AFB       SUNNY     41  33  74 E12       30.06R
LOGAN          PTSUNNY   39  35  86 CALM      30.07R
OGDEN          SUNNY     42  34  73 CALM      30.06R
SALT LAKE CITY MOSUNNY   43  35  73 SE8       30.06S
WENDOVER       SUNNY     43  32  65 E5        30.05S
HEBER CITY     SUNNY     36  30  80 CALM      30.06S

$$

UTZ011>015-024>027-261700-

CENTRAL/NORTHEAST UTAH

CITY           SKY/WX    TMP DP  RH WIND       PRES   REMARKS
PROVO AIRPORT  MOSUNNY   44  37  76 SW6       30.09S
MOAB/CANYONLAN MOSUNNY   48  33  56 W9        29.98R
DELTA          MOSUNNY   39  36  87 CALM      30.08F
PRICE          SUNNY     43  23  45 NW15G24   30.01R
RICHFIELD      SUNNY     39  32  75 CALM      30.10S
ROOSEVELT      CLOUDY    43  34  70 E3        30.03R
VERNAL         CLOUDY    44  22  41 CALM      30.01R

$$

UTZ013>016-019>022-027-261700-

SOUTHERN UTAH

CITY           SKY/WX    TMP DP  RH WIND       PRES   REMARKS
BRYCE CANYON   SUNNY     36  22  56 NW9       30.06R WCI  29
CEDAR CITY     SUNNY     36  32  85 N7        30.05F WCI  30
MILFORD        CLOUDY    33  33 100 SW8       30.07F FOG     WCI  26
ST GEORGE      SUNNY     48  36  63 CALM      30.07S
HANKSVILLE     SUNNY     50  28  43 NW6       30.03S
KANAB          SUNNY     45  34  65 S1        30.10S
BLANDING       MOSUNNY   46  36  68 CALM      30.06R

$$

REGIONAL REPORTS     COLORADO/ARIZONA

CITY           SKY/WX    TMP DP  RH WIND       PRES   REMARKS
CRAIG, CO      CLOUDY    39  29  67 SW9       30.00S WCI  33
GRAND JUNCTION PTSUNNY   52  34  50 NE5       29.96R
RIFLE, CO      CLOUDY    46  30  53 NW12      29.96S
MONTROSE, CO   CLOUDY    45  38  76 VRB5      29.98S
CORTEZ, CO     PTSUNNY   45  37  73 W10       29.97S
COLORADO CITY    N/A     45  36  70 CALM      30.08S
PAGE, AZ       SUNNY     52  32  46 NW12      30.02R
GRAND CANYON   SUNNY     41  30  65 W3        30.07R
KINGMAN, AZ    SUNNY     57  26  30 NE5       30.04R
FLAGSTAFF, AZ  SUNNY     42  20  41 CALM      30.05R

$$

REGIONAL REPORTS    NEVADA/IDAHO/WYOMING

CITY           SKY/WX    TMP DP  RH WIND       PRES   REMARKS
LAS VEGAS, NV  MOSUNNY   61  36  39 NE3       30.02R
ELY, NY        MOSUNNY   34  26  72 S7        30.06R WCI  28
ELKO, NV       PTSUNNY   38  30  73 E5        30.02S WCI  34
POCATELLO, ID  MOSUNNY   40  29  64 VRB3      30.03F
BURLEY, ID     MOSUNNY   42  31  64 E5        29.99S
FORT BRIDGER,    N/A     36  26  68 W13       30.07R WCI  27
EVANSTON, WY   SUNNY     31  27  85 SW6       30.05S WCI  25
ROCK SPRINGS,  SUNNY     36  26  67 W7        30.03R WCI  30

$$



USA.gov is the U.S. government's official web portal to all federal, state and local government web resources and services.